Hartford, CT

9:30 PM EST on November 16, 2019 (GMT -0500)
Hartford-brainard

Weather History for KHFD - October, 2019

Change the Weather History Date:

Monday, October 14, 2019

  Actual Average Record
Temperature  
Mean Temperature 58 °F -  
Max Temperature 70 °F 63 °F 82 °F (1954)
Min Temperature 46 °F 42 °F 26 °F (1958)
Degree Days  
Heating Degree Days 7    
Growing Degree Days 8 (Base 50)    
Moisture  
Dew Point 48 °F    
Average Humidity 77    
Maximum Humidity 96    
Minimum Humidity 51    
Precipitation  
Precipitation 0.00 in - - ()
Sea Level Pressure  
Sea Level Pressure 29.97 in    
Wind  
Wind Speed 2 mph ()    
Max Wind Speed 9 mph    
Max Gust Speed -    
Visibility 9.4 miles    
Events      
Averages and records for this station are not official NWS values.
T = Trace of Precipitation, MM = Missing Value Source: Averaged Metar Reports

Daily Weather History Graph

Daily Weather History Graph

Search for Another Location

Airport or City:

Astronomy

Oct. 14, 2019 Rise Set
Actual Time 7:01 AM EDT 6:11 PM EDT
Civil Twilight 6:33 AM EDT 6:39 PM EDT
Nautical Twilight 6:01 AM EDT 7:11 PM EDT
Astronomical Twilight 5:28 AM EDT 7:43 PM EDT
Moon 6:59 PM EDT (10/14) 7:30 AM EDT (10/14)
Length of Visible Light 12h 05m
Length of Day
11h 09m
Waxing Gibbous, 99% of the Moon is Illuminated
Oct 14
Waxing Gibbous
Oct 21
Last Quarter
Oct 27
New
Nov 4
First Quarter
Nov 12
Full

Hourly Weather History & Observations

Time (EDT) Temp. Dew Point Humidity Pressure Visibility Wind Dir Wind Speed Gust Speed Precip Events Conditions
12:53 AM 48.9 °F 46.9 °F 93% 30.03 in 10.0 mi Calm Calm - N/A   Mostly Cloudy
1:53 AM 50.0 °F 48.0 °F 93% 30.02 in 10.0 mi SE 3.5 mph - N/A   Overcast
2:53 AM 50.0 °F 48.0 °F 93% 30.00 in 10.0 mi Calm Calm - N/A   Overcast
3:53 AM 48.9 °F 46.0 °F 90% 29.98 in 10.0 mi Calm Calm - N/A   Scattered Clouds
4:53 AM 46.9 °F 45.0 °F 93% 29.98 in 1.5 mi ESE 3.5 mph - N/A   Clear
5:01 AM 46.0 °F 45.0 °F 96% 29.97 in 4.0 mi Calm Calm - N/A   Clear
5:53 AM 46.9 °F 45.0 °F 93% 29.98 in 10.0 mi Calm Calm - N/A   Clear
6:38 AM 46.9 °F 44.1 °F 90% 29.99 in 9.0 mi Calm Calm - N/A   Mostly Cloudy
6:53 AM 48.0 °F 45.0 °F 89% 30.00 in 10.0 mi North 4.6 mph - N/A   Overcast
7:01 AM 48.0 °F 45.0 °F 89% 30.00 in 10.0 mi North 3.5 mph - N/A   Overcast
7:53 AM 48.0 °F 45.0 °F 89% 30.01 in 10.0 mi NNE 5.8 mph - N/A   Overcast
8:53 AM 48.9 °F 45.0 °F 86% 30.01 in 10.0 mi Calm Calm - N/A   Overcast
9:53 AM 51.1 °F 46.0 °F 83% 30.01 in 10.0 mi Calm Calm - N/A   Overcast
10:53 AM 55.0 °F 48.9 °F 80% 30.00 in 9.0 mi Calm Calm - N/A   Overcast
11:35 AM 57.0 °F 50.0 °F 77% 29.99 in 10.0 mi Calm Calm - N/A   Mostly Cloudy
11:42 AM 59.0 °F 51.1 °F 75% 29.98 in 10.0 mi Calm Calm - N/A   Mostly Cloudy
11:53 AM 59.0 °F 51.1 °F 75% 29.97 in 9.0 mi East 3.5 mph - N/A   Scattered Clouds
12:53 PM 64.0 °F 54.0 °F 70% 29.94 in 10.0 mi Calm Calm - N/A   Clear
1:53 PM 68.0 °F 53.1 °F 59% 29.91 in 10.0 mi Variable 6.9 mph - N/A   Clear
2:53 PM 70.0 °F 51.1 °F 51% 29.88 in 10.0 mi South 9.2 mph - N/A   Clear
3:53 PM 70.0 °F 52.0 °F 53% 29.87 in 10.0 mi South 6.9 mph - N/A   Clear
4:53 PM 68.0 °F 53.1 °F 59% 29.88 in 10.0 mi South 9.2 mph - N/A   Clear
5:53 PM 64.9 °F 53.1 °F 65% 29.90 in 10.0 mi South 5.8 mph - N/A   Clear
6:53 PM 63.0 °F 52.0 °F 67% 29.91 in 10.0 mi South 5.8 mph - N/A   Clear
7:53 PM 59.0 °F 52.0 °F 78% 29.94 in 10.0 mi South 6.9 mph - N/A   Clear
8:53 PM 59.0 °F 55.0 °F 87% 29.96 in 10.0 mi SSW 6.9 mph - N/A   Clear
9:53 PM 60.1 °F 46.0 °F 60% 30.00 in 10.0 mi NW 6.9 mph - N/A   Clear
10:53 PM 57.9 °F 42.1 °F 56% 30.02 in 10.0 mi NNW 9.2 mph - N/A   Clear
11:53 PM 55.9 °F 39.9 °F 55% 30.04 in 10.0 mi NW 9.2 mph - N/A   Clear